This is the latest recevied weather packets stored in our database for station/object KE8WAY. If no packets are shown the sender has not sent any weather packets the latest 10 day(s).
| Time | Temp. | Humidity | Pressure | Rain* | Wind** | Luminosity | Snow |
|---|---|---|---|---|---|---|---|
| 1788136119 | 71° F | 83% | 762.7 mmHg | 0 in | - | 0 W/m² | - |
| 1788135818 | 71° F | 83% | 762.7 mmHg | 0 in | - | 0 W/m² | - |
| 1788135514 | 71° F | 83% | 762.7 mmHg | 0 in | - | 0 W/m² | - |
| 1788135209 | 71° F | 83% | 762.9 mmHg | 0 in | - | 0 W/m² | - |
| 1788134907 | 71° F | 82% | 762.8 mmHg | 0 in | - | 0 W/m² | - |
| 1788134606 | 71° F | 82% | 762.8 mmHg | 0 in | - | 0 W/m² | - |
| 1788134305 | 71° F | 81% | 762.8 mmHg | 0 in | - | 1 W/m² | - |
| 1788134000 | 71° F | 80% | 763 mmHg | 0 in | - | 3 W/m² | - |
| 1788133695 | 71° F | 79% | 763 mmHg | 0 in | - | 6 W/m² | - |
| 1788133391 | 71° F | 79% | 763 mmHg | 0 in | - | 10 W/m² | - |
| 1788133087 | 71° F | 79% | 762.8 mmHg | 0 in | - | 14 W/m² | - |
| 1788132782 | 71° F | 80% | 762.9 mmHg | 0 in | - | 16 W/m² | - |
| 1788132477 | 71° F | 80% | 762.9 mmHg | 0 in | - | 19 W/m² | - |
| 1788132173 | 71° F | 79% | 763 mmHg | 0 in | - | 21 W/m² | - |
| 1788131869 | 71° F | 79% | 762.9 mmHg | 0 in | - | 23 W/m² | - |
| 1788131568 | 71° F | 77% | 763.1 mmHg | 0 in | - | 23 W/m² | - |
| 1788131264 | 72° F | 80% | 763.1 mmHg | 0 in | - | 16 W/m² | - |
| 1788130959 | 73° F | 77% | 763.2 mmHg | 0.05 in | - | 12 W/m² | - |
| 1788130658 | 73° F | 76% | 763.3 mmHg | 0.17 in | - | 10 W/m² | - |
| 1788130353 | 73° F | 75% | 763.6 mmHg | 0.19 in | - | 12 W/m² | - |
| 1788130052 | 73° F | 84% | 763.6 mmHg | 0.14 in | - | 9 W/m² | - |
| 1788129748 | 73° F | 85% | 763.5 mmHg | 0.07 in | - | 9 W/m² | - |
| 1788129444 | 74° F | 81% | 763.4 mmHg | 0 in | - | 10 W/m² | - |
| 1788129140 | 76° F | 78% | 763.4 mmHg | 0 in | - | 12 W/m² | - |
| 1788128835 | 76° F | 78% | 763.3 mmHg | 0 in | - | 20 W/m² | - |
* Rain latest hour (hover to see other rain measurements)
** Current wind speed in m/s (hover to see current wind gust speed)